N487AC KBZN-KSLC

Flight info

Callsign N487AC
Flight time 0h 47m
Altitude 39000
Route MEADO2 DBS CARTR1
Aircraft GLF6/M-SBDE2E3FGHIJ4J5M1RWXY/LB1D1

Departure

Time 2026-04-24 03:25
Airport Bozeman Yellowstone International Airport (KBZN)

Arrival

Time 2026-04-24 04:12
Airport Salt Lake City International Airport (KSLC)
Time Latitude Longitude Altitude Speed Heading
2026-04-24 03:14 45.76884 -111.14699 4464 ft 0 kts 235°
2026-04-24 03:21 45.76881 -111.14698 4464 ft 3 kts 196°
2026-04-24 03:21 45.76891 -111.14630 4463 ft 12 kts 62°
2026-04-24 03:21 45.76904 -111.14611 4463 ft 0 kts 38°
2026-04-24 03:22 45.76913 -111.14600 4463 ft 8 kts 42°
2026-04-24 03:22 45.76946 -111.14463 4463 ft 17 kts 118°
2026-04-24 03:22 45.76968 -111.14326 4464 ft 10 kts 45°
2026-04-24 03:23 45.76971 -111.14321 4464 ft 0 kts 45°
2026-04-24 03:24 45.76998 -111.14282 4464 ft 14 kts 45°
2026-04-24 03:24 45.77090 -111.14262 4463 ft 12 kts 315°
2026-04-24 03:24 45.77099 -111.14275 4462 ft 0 kts 315°
2026-04-24 03:24 45.77138 -111.14330 4461 ft 38 kts 315°
2026-04-24 03:25 45.77554 -111.14907 4458 ft 127 kts 316°
2026-04-24 03:25 45.78368 -111.16037 4567 ft 191 kts 315°
2026-04-24 03:25 45.79484 -111.17533 4960 ft 246 kts 315°
2026-04-24 03:25 45.80642 -111.19235 6475 ft 226 kts 315°
2026-04-24 03:26 45.81699 -111.20736 7162 ft 208 kts 316°
2026-04-24 03:26 45.82759 -111.22202 7270 ft 216 kts 317°
2026-04-24 03:26 45.83831 -111.23700 8157 ft 211 kts 316°
2026-04-24 03:26 45.84877 -111.25166 9232 ft 212 kts 315°
2026-04-24 03:27 45.85945 -111.26666 10170 ft 217 kts 315°
2026-04-24 03:27 45.87062 -111.28235 10998 ft 237 kts 315°
2026-04-24 03:27 45.88199 -111.30116 11712 ft 269 kts 301°
2026-04-24 03:27 45.88933 -111.32631 13337 ft 273 kts 286°
2026-04-24 03:28 45.89155 -111.35356 15056 ft 280 kts 269°
2026-04-24 03:28 45.88768 -111.38120 16664 ft 287 kts 252°
2026-04-24 03:28 45.87776 -111.40642 18298 ft 295 kts 234°
2026-04-24 03:28 45.86338 -111.42795 19697 ft 301 kts 229°
2026-04-24 03:29 45.84858 -111.44952 21133 ft 304 kts 230°
2026-04-24 03:29 45.83306 -111.47065 22536 ft 313 kts 224°
2026-04-24 03:29 45.81473 -111.48775 23873 ft 323 kts 215°
2026-04-24 03:29 45.79385 -111.50126 24883 ft 335 kts 209°
2026-04-24 03:30 45.77208 -111.51455 25876 ft 344 kts 210°
2026-04-24 03:30 45.74976 -111.52856 26722 ft 359 kts 210°
2026-04-24 03:30 45.72589 -111.54346 27082 ft 389 kts 210°
2026-04-24 03:30 45.70009 -111.55927 27480 ft 418 kts 209°
2026-04-24 03:31 45.67262 -111.57605 28255 ft 436 kts 209°
2026-04-24 03:31 45.64439 -111.59336 29549 ft 447 kts 209°
2026-04-24 03:31 45.61542 -111.61125 30554 ft 460 kts 209°
2026-04-24 03:31 45.58572 -111.62949 31667 ft 467 kts 208°
2026-04-24 03:32 45.55593 -111.64771 32709 ft 476 kts 208°
2026-04-24 03:32 45.52517 -111.66655 33734 ft 484 kts 208°
2026-04-24 03:32 45.49394 -111.68568 34584 ft 493 kts 208°
2026-04-24 03:32 45.46207 -111.70516 35284 ft 503 kts 207°
2026-04-24 03:33 45.42953 -111.72501 35980 ft 512 kts 207°
2026-04-24 03:33 45.39641 -111.74518 36649 ft 521 kts 207°
2026-04-24 03:33 45.36270 -111.76570 37307 ft 530 kts 207°
2026-04-24 03:33 45.32893 -111.78624 37958 ft 538 kts 207°
2026-04-24 03:34 45.29421 -111.80744 38598 ft 546 kts 207°
2026-04-24 03:34 45.26128 -111.83439 39005 ft 545 kts 220°
2026-04-24 03:34 45.23379 -111.87074 39013 ft 535 kts 232°
2026-04-24 03:34 45.21323 -111.91409 39011 ft 526 kts 246°
2026-04-24 03:35 45.19765 -111.96096 39015 ft 527 kts 243°
2026-04-24 03:35 45.17585 -112.00229 39018 ft 536 kts 229°
2026-04-24 03:35 45.14661 -112.03546 39016 ft 544 kts 215°
2026-04-24 03:35 45.11194 -112.05789 39013 ft 551 kts 201°
2026-04-24 03:36 45.07405 -112.06814 39017 ft 558 kts 188°
2026-04-24 03:36 44.99612 -112.07166 39033 ft 561 kts 185°
2026-04-24 03:37 44.91848 -112.07833 39032 ft 555 kts 191°
2026-04-24 03:37 44.84244 -112.09462 39022 ft 552 kts 191°
2026-04-24 03:38 44.76597 -112.10414 39024 ft 554 kts 189°
2026-04-24 03:38 44.68952 -112.11747 39036 ft 552 kts 192°
2026-04-24 03:39 44.61340 -112.12849 39029 ft 553 kts 190°
2026-04-24 03:39 44.53702 -112.14072 39018 ft 551 kts 192°
2026-04-24 03:40 44.46063 -112.15233 39008 ft 552 kts 191°
2026-04-24 03:40 44.38321 -112.15450 38996 ft 559 kts 182°
2026-04-24 03:41 44.30570 -112.15058 38990 ft 562 kts 182°
2026-04-24 03:41 44.22737 -112.13712 38979 ft 571 kts 172°
2026-04-24 03:42 44.15161 -112.10272 38970 ft 582 kts 159°
2026-04-24 03:42 44.08181 -112.04420 38967 ft 592 kts 144°
2026-04-24 03:43 44.02333 -111.96257 38971 ft 600 kts 129°
2026-04-24 03:43 43.98115 -111.86248 38977 ft 601 kts 113°
2026-04-24 03:44 43.94763 -111.75617 38970 ft 601 kts 118°
2026-04-24 03:44 43.92403 -111.70846 38971 ft 599 kts 133°
2026-04-24 03:44 43.89351 -111.66949 38971 ft 594 kts 146°
2026-04-24 03:44 43.85837 -111.64154 38976 ft 586 kts 160°
2026-04-24 03:45 43.81971 -111.62521 38975 ft 576 kts 174°
2026-04-24 03:45 43.78008 -111.62157 38986 ft 565 kts 188°
2026-04-24 03:45 43.74154 -111.62955 39004 ft 557 kts 197°
2026-04-24 03:46 43.66612 -111.65486 39006 ft 558 kts 199°
2026-04-24 03:46 43.58977 -111.67399 39011 ft 563 kts 192°
2026-04-24 03:47 43.51183 -111.68638 39011 ft 561 kts 194°
2026-04-24 03:47 43.43506 -111.70519 39013 ft 562 kts 193°
2026-04-24 03:48 43.35728 -111.71950 39018 ft 562 kts 193°
2026-04-24 03:48 43.28055 -111.73672 39011 ft 562 kts 193°
2026-04-24 03:49 43.20290 -111.75202 39002 ft 562 kts 193°
2026-04-24 03:49 43.12581 -111.76847 38990 ft 559 kts 193°
2026-04-24 03:50 43.04877 -111.78409 38974 ft 559 kts 193°
2026-04-24 03:50 42.97193 -111.80006 38965 ft 559 kts 193°
2026-04-24 03:51 42.89520 -111.81574 38964 ft 560 kts 193°
2026-04-24 03:51 42.81800 -111.83159 38957 ft 560 kts 193°
2026-04-24 03:52 42.74083 -111.84734 38955 ft 559 kts 193°
2026-04-24 03:52 42.66421 -111.86182 38959 ft 559 kts 191°
2026-04-24 03:53 42.58691 -111.87517 38937 ft 560 kts 192°
2026-04-24 03:53 42.56119 -111.87967 38285 ft 558 kts 192°
2026-04-24 03:53 42.52390 -111.88590 37081 ft 526 kts 192°
2026-04-24 03:53 42.48790 -111.89195 36038 ft 519 kts 193°
2026-04-24 03:54 42.45249 -111.89816 35201 ft 497 kts 193°
2026-04-24 03:54 42.41936 -111.90371 34359 ft 465 kts 194°
2026-04-24 03:54 42.38720 -111.90925 33531 ft 467 kts 194°
2026-04-24 03:54 42.35543 -111.91484 32716 ft 461 kts 195°
2026-04-24 03:55 42.32379 -111.92014 31930 ft 460 kts 195°
2026-04-24 03:55 42.29155 -111.92568 31168 ft 472 kts 195°
2026-04-24 03:55 42.25858 -111.93134 30434 ft 478 kts 195°
2026-04-24 03:55 42.22599 -111.93672 29659 ft 463 kts 194°
2026-04-24 03:56 42.19424 -111.94197 28814 ft 458 kts 195°
2026-04-24 03:56 42.16288 -111.94751 28026 ft 455 kts 195°
2026-04-24 03:56 42.13187 -111.95272 27234 ft 444 kts 195°
2026-04-24 03:56 42.10104 -111.95790 26477 ft 447 kts 195°
2026-04-24 03:57 42.07063 -111.96301 25741 ft 434 kts 195°
2026-04-24 03:57 42.04066 -111.96807 25016 ft 434 kts 195°
2026-04-24 03:57 42.01069 -111.97323 24313 ft 429 kts 195°
2026-04-24 03:57 41.98134 -111.97806 23630 ft 422 kts 195°
2026-04-24 03:58 41.95243 -111.98295 22844 ft 423 kts 195°
2026-04-24 03:58 41.92352 -111.98783 22066 ft 413 kts 195°
2026-04-24 03:58 41.89496 -111.99265 21344 ft 412 kts 195°
2026-04-24 03:58 41.86667 -111.99739 20823 ft 406 kts 195°
2026-04-24 03:59 41.83779 -112.00236 20298 ft 424 kts 194°
2026-04-24 03:59 41.80917 -112.00709 19733 ft 416 kts 194°
2026-04-24 03:59 41.78064 -112.01166 19178 ft 408 kts 194°
2026-04-24 03:59 41.75282 -112.01607 18640 ft 397 kts 194°
2026-04-24 04:00 41.72571 -112.02026 18105 ft 387 kts 194°
2026-04-24 04:00 41.69923 -112.02438 17580 ft 377 kts 194°
2026-04-24 04:00 41.67348 -112.02840 17101 ft 368 kts 194°
2026-04-24 04:00 41.64856 -112.03236 16631 ft 361 kts 194°
2026-04-24 04:01 41.62379 -112.03624 16151 ft 355 kts 194°
2026-04-24 04:01 41.59950 -112.03999 15687 ft 348 kts 194°
2026-04-24 04:01 41.57567 -112.04369 15235 ft 341 kts 194°
2026-04-24 04:01 41.55218 -112.04555 14970 ft 334 kts 185°
2026-04-24 04:02 41.52930 -112.04379 14773 ft 329 kts 184°
2026-04-24 04:02 41.50633 -112.04297 14164 ft 335 kts 185°
2026-04-24 04:02 41.48297 -112.04198 13544 ft 336 kts 184°
2026-04-24 04:02 41.45965 -112.03980 12868 ft 338 kts 177°
2026-04-24 04:03 41.43729 -112.02915 12174 ft 347 kts 155°
2026-04-24 04:03 41.41730 -112.01228 11505 ft 324 kts 150°
2026-04-24 04:03 41.39865 -111.99623 10983 ft 322 kts 153°
2026-04-24 04:03 41.37905 -111.98283 10975 ft 312 kts 161°
2026-04-24 04:04 41.35851 -111.97455 10980 ft 306 kts 172°
2026-04-24 04:04 41.33762 -111.96913 10976 ft 305 kts 174°
2026-04-24 04:04 41.31717 -111.96305 10970 ft 306 kts 168°
2026-04-24 04:04 41.29749 -111.95188 10973 ft 308 kts 159°
2026-04-24 04:05 41.27718 -111.94430 10974 ft 301 kts 180°
2026-04-24 04:05 41.25695 -111.94815 10974 ft 290 kts 206°
2026-04-24 04:05 41.23867 -111.95881 10975 ft 289 kts 203°
2026-04-24 04:05 41.21831 -111.96082 10991 ft 300 kts 180°
2026-04-24 04:06 41.19730 -111.95767 10993 ft 303 kts 179°
2026-04-24 04:06 41.17631 -111.95692 10996 ft 299 kts 188°
2026-04-24 04:06 41.15598 -111.95967 11019 ft 296 kts 192°
2026-04-24 04:06 41.13540 -111.96236 11013 ft 297 kts 189°
2026-04-24 04:07 41.11457 -111.96236 11009 ft 300 kts 184°
2026-04-24 04:07 41.09366 -111.96188 11001 ft 300 kts 185°
2026-04-24 04:07 41.07273 -111.96214 11006 ft 300 kts 186°
2026-04-24 04:07 41.05181 -111.96218 11007 ft 301 kts 184°
2026-04-24 04:08 41.03088 -111.96196 10996 ft 300 kts 185°
2026-04-24 04:08 41.00997 -111.96223 10975 ft 300 kts 185°
2026-04-24 04:08 40.98930 -111.96204 10740 ft 285 kts 184°
2026-04-24 04:08 40.96959 -111.96194 9007 ft 285 kts 185°
2026-04-24 04:09 40.95152 -111.96214 8587 ft 229 kts 184°
2026-04-24 04:09 40.93739 -111.96180 8709 ft 187 kts 184°
2026-04-24 04:09 40.92469 -111.96145 8711 ft 182 kts 185°
2026-04-24 04:09 40.91222 -111.96111 8368 ft 180 kts 184°
2026-04-24 04:10 40.89974 -111.96077 7958 ft 178 kts 183°
2026-04-24 04:10 40.88669 -111.96049 6940 ft 196 kts 182°
2026-04-24 04:10 40.87317 -111.96031 6062 ft 195 kts 181°
2026-04-24 04:11 40.84851 -111.96141 5450 ft 177 kts 183°
2026-04-24 04:11 40.83621 -111.96173 5134 ft 176 kts 179°
2026-04-24 04:11 40.82398 -111.96191 4911 ft 173 kts 177°
2026-04-24 04:11 40.81242 -111.96209 4631 ft 159 kts 180°
2026-04-24 04:12 40.80213 -111.96204 4325 ft 137 kts 177°
2026-04-24 04:12 40.79366 -111.96206 4226 ft 107 kts 178°
2026-04-24 04:12 40.78802 -111.96206 4229 ft 55 kts 178°
2026-04-24 04:12 40.78596 -111.96053 4228 ft 12 kts 127°
2026-04-24 04:13 40.78593 -111.96048 4228 ft 0 kts 126°
2026-04-24 04:14 40.78553 -111.96009 4228 ft 11 kts 162°
2026-04-24 04:14 40.78449 -111.96001 4227 ft 18 kts 180°
2026-04-24 04:14 40.78320 -111.96000 4226 ft 20 kts 180°
2026-04-24 04:14 40.78224 -111.95921 4222 ft 17 kts 140°
2026-04-24 04:15 40.78093 -111.95875 4225 ft 15 kts 178°
2026-04-24 04:15 40.78083 -111.95875 4225 ft 0 kts 182°